RH
22 21 20 20 22 28 33 36 38 36 30 23 19 18 18 19 21 23 24 24 24 24 28 33 36 36 36 36 37 38 40 42 43 46 49 52 55 58 62 65 68 70 71 71 72 73 73 73 73 74 76 78 79 79 79 78 78 77 78 79 78 77 77 73 73 79 80 81 83 82 82 78 75 81 85 82 77 78 80 65 45 46 60 54 27 15 24
22 21 21 23 29 35 38 39 38 31 23 19 19 19 20 22 23 24 24 23 24 27 33 37 37 37 37 38 39 41 44 46 48 52 55 57 61 65 69 71 72 74 74 73 74 75 76 77 78 79 82 84 84 83 83 82 81 81 80 83 83 79 80 77 71 72 75 77 79 78 77 77 74 73 79 83 81 83 83 68 47 43 53 54 32 12 14
22 22 23 29 36 40 41 40 33 25 20 20 20 21 23 24 24 24 23 24 27 33 37 38 37 38 39 40 43 45 48 51 54 57 60 63 67 69 71 72 72 73 74 76 76 76 78 80 81 83 85 86 86 84 85 85 84 84 83 85 86 83 83 84 77 72 74 74 75 78 78 77 78 76 78 86 86 86 88 73 52 43 44 51 44 20 11
23 23 28 36 41 43 42 37 28 21 20 22 22 22 24 24 24 24 24 27 33 37 39 38 38 39 41 44 46 50 53 56 58 60 63 65 66 66 64 63 62 64 67 71 73 73 76 78 81 84 85 85 85 84 84 85 85 86 86 86 88 86 85 87 85 77 77 78 76 80 82 80 84 86 83 88 88 89 95 79 55 45 39 39 42 27 12
22 25 34 42 45 45 41 33 25 21 22 23 24 24 24 25 25 26 28 33 37 39 39 39 40 41 43 47 51 54 58 59 59 60 60 61 60 58 56 56 56 56 59 63 66 67 70 75 79 81 82 83 84 82 83 85 86 87 88 86 87 87 85 87 88 81 78 82 78 81 89 87 89 93 87 87 86 89 100 85 55 48 42 29 28 23 12
24 30 39 46 47 45 39 29 23 22 24 24 25 25 25 26 27 29 33 37 40 40 40 40 41 43 47 52 56 58 59 59 58 57 56 55 54 52 54 57 57 55 55 58 60 61 65 70 74 76 78 80 82 83 83 85 87 87 88 87 84 86 85 85 88 84 79 83 81 81 90 89 86 87 83 84 85 86 96 84 52 45 44 28 20 17 11
27 34 42 48 49 44 35 26 23 23 25 25 25 26 26 27 29 33 37 40 41 41 41 41 43 47 52 57 58 59 59 57 56 54 53 53 52 53 56 57 55 53 54 56 57 58 60 64 67 69 74 79 81 83 84 85 87 88 87 86 82 82 83 82 87 88 82 83 84 81 84 83 79 79 77 80 83 81 86 78 51 40 40 30 21 15 10
32 39 46 50 50 42 31 25 24 24 25 26 26 27 28 29 33 37 40 42 42 42 42 44 47 51 56 58 58 57 56 54 53 52 52 52 54 56 56 53 52 52 54 56 55 56 57 59 63 68 74 80 81 83 84 85 88 88 85 84 81 79 81 80 83 90 87 84 84 81 81 81 79 79 76 74 74 74 79 75 53 36 31 26 22 15 10
40 46 50 52 48 38 29 25 24 25 26 26 27 28 29 32 36 39 42 43 42 43 45 47 50 53 54 54 54 53 52 51 51 51 52 53 55 57 55 52 52 53 55 56 56 56 55 56 64 72 78 83 83 84 86 86 88 87 84 83 81 79 80 79 81 88 90 87 85 83 82 81 79 76 70 64 63 67 75 72 53 40 33 24 19 14 9
49 53 53 52 45 35 29 26 26 27 27 27 28 29 31 36 40 41 44 44 43 45 48 50 52 52 51 51 51 52 52 52 53 53 54 56 56 56 55 54 55 56 57 58 57 56 55 58 70 81 85 87 87 86 89 90 88 86 84 84 84 82 82 82 82 88 90 89 87 85 82 81 77 70 63 59 55 57 67 64 47 38 36 27 20 16 10
57 57 55 50 43 34 29 27 27 28 28 28 29 31 34 39 41 42 44 45 45 48 51 53 53 52 51 52 53 54 55 56 56 55 57 60 58 56 56 56 58 58 59 60 58 54 57 66 78 88 90 90 90 90 92 91 88 86 85 85 86 86 86 85 84 88 91 90 86 83 81 80 77 70 64 59 51 46 56 60 46 34 34 30 23 18 11
61 59 55 50 41 34 29 28 28 28 28 29 30 33 37 40 41 41 43 45 48 51 54 55 55 55 56 57 56 57 57 57 56 57 60 63 60 57 57 57 58 60 59 57 54 55 65 77 86 90 92 91 90 91 92 90 87 86 86 87 88 89 90 89 86 87 89 87 84 81 80 80 78 73 66 58 47 38 43 53 48 36 32 29 22 17 12
64 60 56 49 40 34 29 28 29 28 28 30 31 35 38 39 40 41 43 45 49 53 56 58 58 58 58 57 57 58 58 57 57 59 63 65 60 57 58 57 56 59 58 53 53 60 74 84 88 89 90 89 88 89 91 89 87 86 88 91 92 91 92 92 89 88 88 87 86 85 82 79 77 73 65 56 47 37 33 38 39 33 28 24 19 14 10
66 60 56 48 39 33 29 29 29 28 29 31 33 36 38 38 40 41 43 47 50 53 57 60 60 58 56 54 55 57 57 56 57 59 63 64 60 58 57 56 56 57 54 52 57 66 77 84 86 86 85 85 84 84 87 90 89 87 88 92 94 94 95 95 92 91 91 90 87 84 80 78 77 73 66 57 48 39 32 28 29 28 25 20 16 12 9
66 60 55 46 38 33 29 30 30 28 30 32 34 37 38 38 40 43 44 47 49 53 58 60 58 54 51 50 54 56 56 57 60 63 63 62 60 58 57 56 55 53 52 56 63 69 77 82 85 84 81 81 81 81 83 88 91 90 88 91 95 96 97 99 97 95 96 95 91 85 79 77 76 72 67 61 51 41 34 29 25 25 23 18 15 12 9
66 59 53 44 37 32 29 31 30 29 31 34 35 37 38 39 41 44 45 46 49 54 59 59 55 51 49 52 54 56 57 60 63 65 64 60 58 58 57 55 54 53 56 61 66 71 76 79 82 82 80 78 80 81 82 83 88 91 88 88 94 97 99 103 103 99 98 99 98 93 85 80 78 76 70 64 55 44 36 30 25 23 21 18 14 11 8
64 58 52 43 36 31 30 30 30 30 33 35 37 39 39 40 43 45 45 46 50 56 58 55 52 51 51 54 57 58 59 61 61 61 59 57 57 58 57 56 55 57 59 61 65 70 73 74 77 82 83 81 81 83 84 83 85 88 87 86 91 96 99 104 107 104 100 100 100 98 92 85 82 79 70 61 53 44 36 31 25 21 19 17 14 10 8
62 57 51 43 35 30 31 31 30 32 34 36 39 40 40 42 45 46 47 50 54 57 56 53 52 53 54 57 59 59 59 60 60 59 56 55 58 60 58 57 57 59 60 61 64 67 69 68 71 77 83 86 86 86 86 86 85 85 86 86 88 94 98 101 105 105 101 100 100 97 93 86 79 74 67 57 50 44 37 31 24 19 17 16 13 10 7
61 57 50 42 34 30 31 31 30 32 35 38 40 41 41 44 47 49 52 54 56 57 56 55 55 55 56 58 59 59 59 59 59 57 55 56 59 60 59 59 60 60 60 61 62 63 64 63 65 72 80 87 89 89 88 88 87 85 86 85 86 92 98 100 102 103 101 101 100 95 90 86 77 69 65 59 51 44 36 29 23 19 17 15 12 9 7
61 57 49 40 33 31 31 30 31 33 36 39 41 42 43 45 49 52 54 55 57 60 60 57 55 57 58 57 57 59 61 60 56 54 55 58 61 61 61 61 59 59 59 59 59 60 60 61 63 69 76 82 86 86 87 90 89 86 85 85 86 90 97 101 104 105 103 103 104 100 96 93 86 76 70 64 55 45 36 29 24 20 17 14 12 9 6
61 56 49 40 32 31 31 30 31 34 37 40 41 41 43 46 50 54 55 57 61 64 60 56 56 58 57 57 57 59 59 56 54 55 59 62 62 63 64 62 59 58 58 57 57 57 58 62 67 68 71 77 80 80 83 88 89 85 84 85 86 89 95 101 104 107 107 107 108 107 102 99 94 85 74 65 56 46 37 31 26 21 17 14 11 8 6
62 56 48 39 32 32 31 30 32 35 39 40 41 42 44 48 52 53 56 61 64 61 57 57 60 58 55 56 58 56 55 56 59 63 65 64 64 66 68 65 61 61 60 56 56 58 60 64 68 68 71 76 78 77 79 83 86 85 84 83 84 87 93 99 103 106 110 109 108 107 103 99 96 89 76 65 56 47 38 31 25 20 17 14 11 8 6
62 55 46 37 33 32 30 30 33 37 40 40 41 43 47 51 54 55 59 63 63 60 60 62 61 56 54 55 55 53 55 61 65 65 65 67 70 72 71 67 63 62 61 58 59 64 67 68 69 71 73 75 74 74 77 80 83 84 82 81 83 84 90 97 100 103 106 106 106 107 104 97 93 89 78 66 57 48 38 31 24 19 16 14 11 9 6
61 54 44 35 33 32 30 31 34 38 41 40 41 46 50 54 56 61 65 65 61 63 66 64 57 54 54 55 54 55 59 62 63 64 66 70 75 74 71 68 64 62 62 64 67 72 74 73 73 74 75 73 71 73 75 76 78 82 83 81 80 80 85 93 97 100 103 104 105 109 109 101 93 87 77 64 55 47 38 31 24 19 15 13 11 8 6
60 54 42 34 33 31 30 32 36 40 41 41 43 49 53 56 59 64 67 65 63 66 68 61 54 53 57 59 59 61 63 63 62 67 73 78 78 75 72 69 65 63 67 73 78 80 80 80 78 74 72 71 71 72 74 73 75 80 83 81 76 76 81 87 91 96 100 100 98 101 106 106 97 87 76 64 54 45 36 30 24 19 15 13 10 8 6
59 52 41 34 33 31 30 33 37 41 42 42 46 51 54 58 62 64 64 64 66 67 62 56 54 57 61 65 66 66 65 64 65 71 79 82 81 78 75 70 66 69 75 79 83 85 84 84 81 73 69 70 70 70 72 73 74 78 82 80 75 73 77 82 86 91 94 95 92 90 93 98 95 85 75 65 54 44 35 28 23 18 14 11 9 7 6
58 50 39 34 32 30 30 34 38 41 42 43 48 54 57 61 64 64 62 64 66 63 57 54 56 60 65 69 70 68 65 65 70 77 80 83 84 83 79 73 70 75 82 85 88 90 87 85 82 75 68 67 68 69 71 73 75 79 82 80 74 71 74 78 82 86 89 92 92 87 86 90 90 82 73 65 56 45 34 27 22 18 14 11 8 7 6
56 47 38 33 32 30 31 36 40 42 42 44 50 56 61 64 63 61 62 63 64 60 55 54 58 64 71 73 70 68 67 69 74 79 79 82 87 87 82 78 76 81 87 89 93 95 91 86 83 75 66 63 65 68 69 71 74 77 78 76 72 70 73 75 78 82 87 91 93 89 87 89 89 82 73 65 56 46 34 27 22 17 13 11 8 6 5
54 45 36 32 31 30 32 38 42 42 42 48 55 60 63 62 59 60 64 64 62 59 55 56 62 71 76 74 67 67 71 74 78 80 79 83 88 88 85 83 82 83 87 91 94 96 93 88 82 74 65 62 63 66 68 70 72 73 75 74 73 71 72 74 76 79 83 89 93 92 89 90 93 88 77 66 57 47 35 27 21 17 14 12 9 6 5
51 42 35 32 30 30 34 40 42 43 45 52 59 64 64 60 57 62 66 63 58 56 55 59 67 73 74 70 66 69 76 79 82 83 82 84 88 87 85 84 83 83 86 89 90 91 90 87 83 75 66 61 62 65 67 68 68 70 73 75 76 75 74 73 74 77 80 86 92 95 93 93 93 88 79 68 58 47 36 28 22 18 15 12 9 6 5
48 38 33 32 30 30 36 41 42 45 49 56 61 62 60 56 56 63 67 63 57 55 58 64 70 73 71 69 68 72 78 82 84 85 84 85 86 84 83 83 83 83 85 86 86 87 87 86 84 78 68 62 62 64 65 65 66 67 70 73 76 78 77 73 73 76 79 82 88 93 94 94 92 86 78 69 59 48 38 29 23 18 14 11 9 7 5
44 36 33 32 29 32 38 42 44 48 53 58 61 59 55 54 58 63 65 62 57 57 62 67 69 70 72 75 76 77 78 79 80 82 84 85 85 84 83 84 85 86 86 84 83 85 85 84 83 79 69 63 63 65 64 65 65 65 67 71 74 78 79 76 74 75 78 80 83 86 88 88 88 84 77 68 59 50 39 30 23 18 14 11 9 6 5
40 34 33 31 30 34 40 42 46 53 57 59 60 55 52 57 65 66 63 58 57 60 65 67 68 70 77 86 88 81 75 75 76 79 83 86 85 85 86 88 92 95 94 88 83 82 82 81 80 79 73 67 66 66 65 65 65 65 68 72 75 78 81 78 74 73 75 78 82 83 83 83 83 82 76 67 58 50 40 30 23 17 14 11 9 6 5
38 33 32 30 31 36 41 44 49 55 59 61 59 52 51 58 65 65 60 55 57 63 67 68 71 75 82 91 90 78 73 77 80 83 89 91 88 89 94 98 102 103 99 90 82 78 77 78 79 79 76 72 70 69 67 65 65 66 69 73 75 76 78 77 74 72 73 76 80 82 82 82 81 79 74 64 56 49 40 30 23 17 13 11 9 6 5
36 33 31 30 32 37 42 47 53 56 59 60 57 51 51 55 58 58 56 54 57 65 71 75 80 83 86 92 90 81 80 87 88 90 95 96 93 96 102 104 105 105 99 89 80 73 72 76 79 79 78 77 76 74 68 63 62 63 66 69 71 73 75 75 72 71 71 74 77 80 80 80 79 78 72 63 55 49 40 30 23 17 13 11 9 7 5
36 33 30 30 34 38 43 50 55 58 59 59 55 51 53 56 53 51 54 56 57 63 73 82 88 87 87 94 95 89 89 96 97 95 97 98 98 104 108 105 104 104 98 85 74 70 71 76 78 78 79 80 80 78 69 61 58 59 61 62 66 70 72 71 69 68 69 71 74 76 78 78 77 75 71 64 56 48 39 30 23 18 13 11 9 7 5
36 32 29 31 35 39 45 53 58 62 62 59 53 50 53 57 55 51 52 57 61 66 74 83 88 84 81 88 95 92 91 98 101 98 96 97 100 107 109 106 104 102 93 81 72 69 71 73 74 76 78 80 80 78 70 60 55 54 55 56 60 65 68 68 66 65 67 69 71 73 74 74 73 72 69 64 56 47 38 30 24 18 14 11 9 7 5
35 31 30 33 36 41 49 56 60 62 63 60 58 56 53 54 54 52 51 56 64 70 74 80 85 82 78 85 95 97 96 101 103 99 97 99 102 104 105 103 98 93 86 79 74 70 68 69 70 71 74 77 78 75 67 59 52 49 49 51 53 58 63 65 63 63 65 66 67 68 69 69 68 68 66 63 55 46 37 31 25 20 14 11 9 7 6
33 31 31 34 37 43 52 59 62 63 60 57 61 67 63 55 52 52 53 57 65 72 73 74 79 83 84 90 99 103 102 103 104 102 103 104 104 102 99 92 85 82 80 78 74 69 65 65 67 68 70 74 75 70 63 55 50 46 45 46 49 53 59 61 61 62 65 65 65 66 66 66 65 65 66 64 57 47 39 33 27 21 15 12 10 8 6
31 31 32 35 39 47 56 62 64 65 63 60 63 69 68 58 51 50 54 59 65 70 69 68 72 80 89 97 102 104 104 105 104 104 105 105 104 101 93 80 72 73 77 77 74 70 67 68 71 73 71 70 70 66 59 53 50 46 44 44 45 49 55 59 61 63 66 67 66 66 66 65 65 65 66 65 58 49 42 36 29 22 16 12 10 8 6
30 31 33 37 43 51 58 61 59 60 65 70 71 69 64 58 52 50 53 58 62 65 66 68 72 82 94 101 103 103 104 106 106 105 104 105 105 99 84 69 65 71 76 77 76 75 76 78 80 80 74 68 66 62 56 51 51 49 45 42 43 46 51 57 62 64 66 67 67 66 65 65 65 66 66 65 60 53 47 40 31 24 18 13 10 9 7
29 31 33 39 48 55 57 57 57 58 63 71 73 68 59 55 53 51 51 55 60 64 71 76 81 88 98 103 103 102 103 105 107 106 104 104 103 91 73 63 67 74 79 81 81 82 84 85 85 83 76 68 63 60 54 51 51 50 46 43 42 44 49 56 62 66 67 68 67 65 64 64 65 66 66 64 60 56 51 44 34 26 19 14 11 9 7
29 31 35 42 52 58 57 55 57 61 62 64 66 63 58 55 54 52 51 54 59 66 75 81 84 90 98 102 103 104 104 105 106 104 103 103 100 84 66 63 70 76 82 88 89 87 87 87 87 83 76 68 63 61 57 54 53 52 49 46 43 43 48 56 62 67 70 70 69 67 64 63 64 66 66 64 61 57 52 46 37 28 21 15 11 9 7
28 32 38 47 54 58 57 55 58 61 60 57 56 58 59 59 58 55 52 53 58 66 75 80 84 90 99 103 102 102 103 104 103 102 103 105 100 83 68 65 70 74 82 91 92 87 85 87 86 82 76 69 65 63 60 57 56 53 50 49 47 45 48 55 63 69 73 73 71 69 65 63 63 65 65 64 61 57 52 46 38 29 22 16 12 10 8
29 33 42 51 56 56 56 57 60 62 58 52 50 56 62 64 62 57 52 52 57 64 73 79 83 90 97 100 97 96 100 103 103 104 105 105 100 87 74 69 69 72 79 88 88 83 81 83 83 81 78 73 68 64 61 59 56 52 49 51 51 49 49 54 62 70 75 75 73 70 67 64 63 64 65 65 62 58 53 47 39 30 22 16 12 10 8
31 36 45 53 56 56 57 58 59 58 53 48 49 57 64 67 64 59 55 54 58 64 72 78 83 89 96 97 92 90 95 101 104 104 105 104 98 86 75 70 70 71 76 82 85 82 79 78 80 83 83 78 71 65 62 59 54 49 48 51 52 51 50 54 60 68 74 76 75 72 69 65 63 63 65 65 63 59 55 49 41 32 23 17 13 10 9
32 39 48 54 55 57 59 60 58 55 50 48 51 57 63 65 63 59 56 56 59 65 71 76 79 85 92 93 88 87 94 102 104 104 105 105 98 86 76 73 74 74 76 81 86 85 80 76 78 83 84 79 71 65 61 57 53 50 49 51 53 53 52 53 58 65 73 77 77 75 72 68 64 64 64 64 63 61 57 51 43 33 25 18 14 11 9
34 42 50 54 55 56 58 58 56 53 50 50 52 56 61 62 60 56 55 57 60 65 71 75 78 84 90 91 89 90 97 104 105 103 105 106 99 87 77 74 76 78 80 86 91 91 84 78 79 84 86 79 69 62 59 55 52 50 50 52 54 55 53 53 57 65 73 78 79 77 73 69 66 65 65 65 64 61 57 52 45 35 27 20 15 11 9
36 44 50 53 54 54 54 54 55 53 52 51 52 54 57 58 55 53 53 56 61 66 70 74 80 87 91 91 92 95 102 105 104 104 106 106 98 86 79 77 79 82 86 90 94 93 87 82 84 89 87 78 66 59 56 53 50 50 51 53 55 55 53 54 58 65 72 77 79 77 74 71 68 66 66 66 65 62 58 54 48 39 30 22 16 12 10
39 45 51 53 53 52 52 52 53 52 51 51 51 51 52 53 52 51 53 57 62 67 72 77 84 91 93 93 94 99 104 105 104 105 106 103 95 86 82 80 81 85 90 94 96 95 92 91 93 92 84 73 63 57 54 51 49 49 51 53 56 57 56 56 60 66 71 76 79 78 75 73 70 67 66 67 66 63 61 58 52 43 33 24 17 13 11
40 46 50 52 51 50 50 50 51 51 51 51 50 49 48 49 50 51 54 59 64 69 73 79 86 92 94 94 95 98 101 101 101 102 103 99 93 89 87 87 88 92 96 98 97 97 99 100 99 91 80 70 63 57 53 49 48 48 50 54 58 59 58 59 62 67 72 76 79 79 77 74 71 68 67 68 67 67 66 62 55 45 35 26 19 14 11
42 46 49 50 49 48 48 49 49 49 50 51 51 48 46 47 49 53 57 63 67 71 75 80 86 90 92 92 93 96 98 97 96 98 99 98 95 95 96 96 96 99 100 98 97 99 101 101 95 87 79 72 65 57 52 49 48 48 50 53 58 61 61 62 65 69 73 77 79 79 77 75 72 69 68 69 69 69 68 64 56 47 37 28 20 15 12
Wind_Speed
10 10 10 10 11 12 14 15 17 18 18 16 15 13 13 14 15 15 14 14 15 16 19 22 22 21 22 25 27 29 32 35 38 41 42 43 44 46 47 48 49 50 51 52 53 55 57 59 60 61 63 64 65 66 68 69 70 72 74 75 77 78 80 81 82 83 84 86 87 88 90 91 92 92 93 96 98 98 99 101 100 98 99 101 99 94 94
10 10 11 11 12 13 15 16 18 18 18 16 14 14 14 15 15 15 15 15 17 20 22 22 21 22 24 27 29 32 35 38 40 42 43 44 45 46 48 49 50 51 52 54 55 56 58 59 61 62 63 64 66 67 68 70 72 73 75 77 78 80 82 84 84 84 85 86 88 89 92 94 96 97 97 99 101 101 101 103 103 100 99 103 104 98 95
11 11 11 12 13 14 16 18 19 19 17 15 14 15 15 16 16 16 16 17 21 23 22 21 22 24 26 29 32 34 37 39 40 41 43 44 45 47 48 49 50 52 53 55 56 57 58 59 61 62 63 65 66 67 69 71 73 74 76 78 79 81 83 86 88 89 90 91 92 94 96 98 100 101 101 101 102 103 103 105 105 103 100 102 106 104 98
10 10 11 12 14 15 18 20 19 17 16 15 14 15 16 16 17 17 18 21 23 23 22 22 24 26 28 31 34 36 37 38 40 41 42 44 45 46 48 49 50 52 53 54 55 57 58 59 61 62 64 65 67 68 70 72 73 75 77 79 80 82 84 86 89 91 93 94 95 97 99 100 101 102 102 102 103 104 105 106 107 105 102 101 105 107 103
10 10 12 13 14 17 19 20 18 15 15 15 14 16 16 17 18 19 21 23 23 22 22 23 25 27 30 33 34 36 37 38 39 40 42 43 44 46 48 49 51 51 52 53 55 56 58 60 61 63 65 66 68 70 71 72 74 76 78 80 81 83 85 86 89 91 93 95 96 97 100 101 102 102 103 103 103 104 105 107 108 107 106 103 102 104 104
9 10 12 13 16 18 20 19 16 14 15 14 15 16 17 18 19 21 22 23 22 22 23 24 26 29 32 33 34 35 35 37 38 39 40 42 44 46 48 50 51 51 51 52 54 56 58 60 62 64 66 67 69 71 72 73 75 77 79 80 82 84 85 87 89 92 93 95 97 98 99 101 101 102 104 105 105 105 105 108 109 108 107 106 103 103 103
9 10 12 15 18 19 19 17 14 14 14 14 15 16 17 19 21 22 23 22 22 23 24 26 28 30 32 32 33 34 35 36 37 38 40 41 43 46 49 51 52 52 52 52 54 55 58 60 63 65 67 69 70 71 72 74 76 78 79 81 83 85 87 88 90 92 94 95 97 98 99 101 103 104 105 106 106 107 107 109 110 109 108 108 107 105 104
9 10 13 16 18 18 17 15 13 13 13 14 15 16 18 20 21 22 22 22 22 23 25 27 29 30 31 31 32 33 34 35 37 39 40 41 44 47 50 52 53 53 53 53 54 56 59 61 64 67 68 70 71 72 73 75 77 79 80 82 84 86 88 89 91 93 95 97 98 100 101 103 105 105 106 106 107 108 110 111 112 110 107 108 108 107 105
9 11 14 16 17 18 16 13 13 13 14 14 16 18 20 21 21 22 22 21 22 24 26 27 29 29 30 31 31 33 34 35 37 39 40 42 45 48 51 53 55 55 55 55 56 58 60 63 66 68 70 71 72 74 75 77 78 80 82 84 86 88 89 91 92 94 97 99 100 102 103 103 104 105 106 108 109 109 110 112 114 113 111 109 108 108 106
9 11 13 16 17 18 15 13 13 13 13 14 16 19 21 21 21 21 22 21 22 24 26 27 28 29 29 31 32 33 34 35 37 39 41 43 45 48 51 54 56 56 55 56 57 59 62 65 67 69 71 73 74 76 77 79 81 82 84 86 88 90 92 93 95 97 99 101 103 104 105 105 106 107 109 110 111 110 111 113 114 114 114 113 111 109 108
8 10 13 16 18 16 13 12 12 13 13 13 17 20 21 21 21 21 21 21 22 24 25 26 27 28 29 30 32 33 34 35 36 39 41 44 46 49 52 54 56 56 56 57 59 61 63 66 68 70 72 74 75 77 79 81 83 85 86 88 90 92 94 96 98 99 101 103 104 105 106 108 109 110 111 112 112 111 112 114 115 114 114 113 113 112 109
8 10 13 16 17 15 12 11 12 12 12 14 18 20 21 21 20 20 21 21 22 23 24 25 26 27 29 30 32 33 34 35 36 38 41 44 47 49 52 55 57 58 58 58 60 62 64 66 68 70 73 75 77 79 81 83 85 87 89 91 93 95 97 98 100 102 103 105 107 108 109 110 111 112 112 112 113 113 112 114 117 117 115 114 113 112 109
8 10 13 15 15 12 10 10 11 11 12 15 19 20 20 20 20 20 21 21 21 22 23 24 26 27 29 30 32 32 33 34 36 39 42 45 47 49 52 55 58 58 59 59 60 62 64 66 67 69 72 75 77 80 83 85 87 89 92 95 96 98 100 101 102 104 105 107 110 111 113 113 113 114 114 115 115 115 115 115 117 118 117 115 113 112 110
7 10 12 14 14 10 9 10 10 11 13 16 19 18 18 19 19 19 20 20 21 21 23 24 26 28 29 31 32 32 32 34 36 39 42 44 46 49 52 56 58 58 58 59 61 62 64 66 68 70 72 75 77 80 84 88 91 93 95 98 100 101 103 104 105 107 108 110 111 112 113 115 116 117 118 118 119 119 118 117 118 119 118 116 114 113 112
7 9 11 13 12 9 9 10 10 10 13 17 18 17 17 17 18 18 19 19 20 21 22 24 26 27 29 31 32 32 33 34 37 39 42 44 46 48 52 56 58 58 58 60 62 64 66 68 71 73 76 79 81 84 87 90 94 96 98 100 102 103 105 107 109 110 112 113 114 115 116 117 119 120 121 122 122 122 122 121 120 120 119 117 115 114 112
7 9 11 12 10 8 9 10 10 11 14 16 17 16 16 16 17 17 17 18 19 20 22 24 26 28 30 31 32 32 33 35 37 40 42 43 45 48 53 56 57 57 59 61 63 66 68 71 74 78 80 82 85 88 91 93 96 98 100 101 103 105 107 109 111 112 114 116 118 120 121 121 122 123 123 124 124 125 124 123 121 120 119 118 115 113 111
6 8 11 11 8 7 9 10 10 11 14 16 16 16 15 16 17 17 17 17 18 19 21 24 26 28 30 31 31 32 33 35 37 39 41 42 45 48 53 56 57 58 60 62 64 67 70 73 76 80 83 85 88 91 94 96 98 101 102 103 104 106 108 109 112 114 115 117 119 121 123 124 125 125 125 124 125 125 125 124 123 120 119 119 117 114 111
6 9 11 10 7 7 9 10 10 12 14 15 15 15 15 16 17 17 17 17 18 20 22 24 27 28 29 30 31 33 34 36 37 39 40 42 44 48 52 55 57 59 61 63 66 69 72 74 77 80 84 87 89 92 96 99 101 103 105 106 107 108 110 111 113 115 116 118 120 122 124 125 126 126 127 126 125 124 124 124 124 122 120 119 117 115 111
7 9 11 9 5 8 9 10 10 12 14 15 15 15 15 15 16 17 17 17 19 21 23 25 27 28 29 30 32 34 35 36 37 38 40 41 43 47 52 55 58 60 62 65 67 70 73 75 78 81 85 88 90 93 97 100 102 105 107 109 109 110 112 113 115 117 118 120 122 123 125 126 127 128 129 129 128 126 124 124 124 124 122 120 118 115 112
7 9 11 8 5 8 9 9 10 13 14 14 15 15 15 15 16 16 17 18 20 22 24 25 27 27 29 31 33 34 36 36 37 38 40 41 44 47 51 54 57 59 62 65 68 71 73 77 80 83 86 89 91 94 97 100 103 106 108 111 112 113 114 115 117 119 121 122 125 127 128 129 130 131 131 131 130 130 128 127 127 127 125 122 119 116 114
7 9 10 6 5 8 9 9 11 13 14 14 14 14 14 15 15 16 17 19 21 22 23 25 26 28 30 32 34 35 36 37 38 39 40 42 44 46 50 54 56 59 63 66 69 72 75 79 82 85 88 90 92 94 97 99 102 106 109 112 114 115 117 118 119 121 122 124 126 129 130 131 132 133 133 132 132 131 131 130 130 128 127 124 120 117 115
7 8 8 4 6 8 8 9 11 13 14 13 13 13 14 15 15 16 18 19 20 22 23 25 26 28 31 33 34 35 36 37 39 40 42 44 45 48 52 55 58 61 64 67 71 74 77 80 83 86 89 91 93 95 97 100 102 106 109 112 115 116 118 119 120 122 124 125 126 128 130 131 132 134 134 133 132 132 131 130 129 128 128 126 123 120 116
7 8 6 2 7 8 8 9 11 13 13 13 13 13 14 15 15 16 18 19 20 22 23 25 27 29 32 33 35 36 37 38 39 40 43 45 47 49 53 56 59 62 65 68 72 76 79 82 84 87 90 92 94 96 98 100 103 106 109 113 115 117 119 121 122 122 123 125 126 128 130 132 133 134 135 134 134 133 131 130 129 128 127 127 125 123 119
7 7 4 3 8 8 8 10 12 13 13 12 12 14 14 14 15 16 18 19 20 21 23 25 27 29 32 34 35 36 37 39 40 41 43 45 47 50 54 57 60 63 66 69 73 77 80 83 85 88 91 93 95 97 99 101 105 108 112 114 117 119 120 121 123 124 124 125 126 129 132 134 135 135 136 135 135 134 133 131 130 129 127 126 125 123 120
7 6 2 5 9 8 8 10 12 13 12 11 13 14 14 14 15 16 17 18 19 21 22 25 27 30 32 34 35 37 38 39 40 42 44 45 48 51 54 58 61 64 67 71 75 78 81 84 86 88 91 93 95 97 100 103 106 109 113 116 118 120 122 123 124 125 126 126 126 128 131 135 137 137 137 137 136 135 134 132 131 129 127 125 123 122 120
7 5 1 7 9 8 9 11 13 12 10 11 13 13 13 14 15 16 17 18 19 20 22 25 27 30 32 34 36 37 38 39 40 42 44 46 49 52 55 59 62 65 69 73 76 79 82 85 87 89 90 92 94 97 101 104 107 111 114 117 120 122 123 124 125 126 127 128 128 128 130 133 136 138 138 139 138 137 135 133 131 130 127 125 122 120 119
7 4 3 8 10 9 9 11 12 11 10 11 12 12 13 13 14 15 16 17 18 20 22 25 27 30 32 34 36 38 38 39 40 42 44 46 49 52 55 59 62 67 71 74 77 79 82 85 87 88 90 92 94 98 101 104 108 111 114 117 120 123 124 126 127 128 130 131 132 133 133 135 137 138 139 140 140 138 136 134 132 130 128 126 124 120 118
7 3 6 10 10 9 10 12 12 10 10 11 12 12 12 13 13 14 15 16 18 20 22 25 27 30 32 35 37 38 38 39 40 42 44 47 49 52 56 59 63 68 71 74 77 80 82 85 86 88 89 92 95 98 101 103 106 110 113 117 120 124 126 128 129 130 132 134 135 136 137 138 140 141 141 141 141 139 137 135 133 132 130 128 126 122 118
7 4 8 11 10 9 11 12 11 10 10 11 11 11 11 12 13 13 14 16 18 20 22 25 28 30 33 35 36 37 38 40 41 43 45 47 50 53 56 60 64 67 71 74 77 80 83 85 86 87 89 92 95 98 100 103 106 110 113 117 120 124 127 130 131 132 133 135 137 138 138 139 141 142 142 142 142 141 139 137 135 133 131 129 126 123 120
6 5 10 11 10 10 11 12 11 10 11 10 10 10 11 11 12 13 14 16 17 20 23 25 28 30 33 34 36 37 38 40 42 44 46 48 51 54 57 60 64 67 71 75 78 80 83 85 87 88 90 93 96 98 101 103 106 110 113 116 119 123 127 130 133 134 135 136 138 140 140 141 142 143 143 143 142 142 140 138 136 134 132 129 126 124 121
6 7 11 12 11 11 12 12 10 10 10 10 9 10 10 10 11 12 14 16 18 20 23 26 28 30 32 34 36 37 39 41 42 44 47 49 52 54 57 60 64 68 72 75 78 80 83 85 87 88 90 93 96 99 101 104 107 110 112 115 119 122 126 130 133 135 137 137 138 139 140 141 142 142 142 142 143 142 141 139 136 134 131 129 127 124 122
6 10 13 13 12 11 12 11 11 11 10 9 9 9 9 9 10 12 14 16 19 21 24 26 28 30 32 34 36 37 39 40 42 45 48 50 52 55 58 61 65 69 72 75 78 80 83 85 87 89 91 93 97 99 102 105 107 109 112 115 118 122 125 129 132 135 137 138 139 138 139 140 142 143 143 143 143 143 142 140 137 134 131 129 127 124 122
7 12 15 14 12 12 12 12 11 11 9 9 8 8 8 9 10 12 14 16 19 21 23 26 28 30 31 34 36 38 39 41 44 46 49 51 53 56 59 63 66 70 73 76 78 80 82 85 87 89 91 94 97 100 102 105 107 110 113 116 119 122 125 128 132 135 137 139 140 141 141 141 142 144 144 144 144 143 142 141 138 134 132 130 127 125 122
9 14 16 14 13 13 12 12 12 11 9 8 8 7 7 8 9 11 14 16 19 21 24 26 28 30 32 34 36 38 40 43 45 47 50 52 55 58 61 65 68 72 74 76 78 80 82 84 86 89 92 95 98 101 103 105 108 110 113 116 119 122 124 127 131 134 136 138 140 142 142 142 143 144 144 144 144 144 143 142 139 136 133 130 128 125 122
11 16 17 15 14 13 13 13 12 10 8 7 7 6 6 7 9 11 14 17 19 21 23 26 28 30 32 35 37 39 42 44 46 49 51 54 57 60 64 67 70 72 74 76 79 80 81 83 86 89 93 96 99 102 104 106 108 111 114 116 119 122 124 127 130 133 136 137 139 141 142 143 143 144 145 145 145 145 144 142 140 137 134 131 128 125 122
14 18 17 15 14 14 13 13 12 9 7 6 5 5 5 7 9 11 14 16 18 21 23 25 27 30 32 35 37 40 43 46 48 51 53 56 59 62 66 68 71 72 74 76 78 80 81 83 86 90 94 98 101 103 105 107 109 111 114 117 120 123 125 127 130 133 135 137 138 140 141 142 142 143 144 145 145 145 144 143 141 138 135 132 129 126 123
16 19 18 16 15 14 14 14 12 9 7 6 5 4 4 6 9 11 13 15 18 21 23 25 27 30 32 35 38 41 44 47 50 52 54 57 60 63 66 68 69 71 74 76 78 79 81 83 87 91 95 99 102 104 106 108 109 112 115 117 120 123 126 128 131 133 135 137 138 139 140 140 141 142 143 144 145 145 144 144 143 140 137 134 131 128 124
19 20 18 16 15 15 15 14 11 8 7 5 4 2 4 6 9 11 13 15 17 20 22 25 27 30 33 36 39 42 45 48 50 52 54 57 61 64 65 67 68 71 73 76 78 79 81 84 88 92 96 99 102 104 106 108 110 112 115 118 121 124 127 129 132 135 137 139 140 141 142 142 143 143 145 146 146 146 146 146 145 142 139 135 132 129 126
21 21 19 17 16 16 16 14 11 8 7 5 3 1 4 6 8 10 12 14 17 19 22 25 27 30 34 37 40 43 46 48 50 52 55 58 61 63 64 66 68 70 73 76 78 79 81 85 89 93 96 99 101 104 106 108 110 113 116 119 122 125 128 131 134 138 141 143 144 145 146 146 146 146 148 149 148 147 147 147 146 144 140 136 133 130 127
23 23 20 18 17 17 16 14 11 9 7 4 2 0 3 5 7 10 12 14 16 19 22 25 28 31 34 37 40 43 46 48 50 52 55 59 62 63 64 66 68 70 73 75 77 80 83 86 90 93 96 98 101 104 106 109 112 114 117 119 122 126 129 132 135 139 142 144 146 146 147 148 148 148 150 150 150 150 149 149 148 145 142 138 134 131 128
25 24 21 20 19 18 17 14 11 10 7 4 2 2 3 5 7 10 12 14 16 19 23 26 29 32 35 38 40 43 46 48 50 53 56 60 62 64 64 66 68 70 73 75 78 81 84 87 91 94 96 99 101 104 106 109 112 115 117 120 122 125 128 132 135 139 142 144 146 147 147 148 149 149 150 151 151 152 151 150 148 146 143 139 135 131 128
26 24 23 22 21 19 16 14 12 10 7 5 4 4 4 5 7 10 12 14 17 20 23 27 30 32 36 38 41 43 45 47 50 54 57 60 62 63 64 66 69 71 73 76 79 82 85 88 91 94 96 99 102 104 107 110 113 115 118 120 122 125 128 132 135 139 142 145 147 147 148 149 149 150 150 151 152 152 152 151 149 147 144 140 136 131 128
27 25 24 23 21 19 16 14 12 10 8 6 5 5 5 6 8 10 12 15 18 21 24 27 30 33 36 39 41 42 44 47 51 55 58 61 62 63 64 67 70 72 75 77 80 82 85 88 91 94 97 99 102 105 107 110 113 116 118 120 123 125 128 132 136 139 142 145 147 148 148 149 150 150 151 151 152 152 152 151 150 148 145 141 136 132 128
27 25 25 24 22 19 17 15 13 11 9 8 6 5 5 7 9 11 13 15 18 22 25 28 31 34 37 39 40 42 44 48 51 56 60 62 63 63 65 68 71 73 76 78 80 83 85 88 91 94 97 99 102 104 108 111 113 116 118 120 123 125 128 131 135 138 141 144 146 148 149 149 150 150 151 152 152 152 152 151 150 148 145 141 137 133 129
27 26 26 24 22 20 18 15 13 11 10 8 7 6 6 8 10 11 13 16 19 23 26 29 32 35 37 39 40 42 45 49 52 57 61 63 64 65 67 69 72 74 76 79 81 83 85 88 91 95 98 100 101 104 107 111 114 116 118 120 123 125 128 131 134 137 140 143 146 148 149 150 150 151 152 152 153 153 153 152 151 148 145 142 138 134 130
27 27 26 24 22 19 18 16 14 12 10 9 7 7 8 9 11 13 15 17 21 24 27 30 33 35 38 40 42 44 47 50 53 57 61 64 65 66 68 70 72 74 77 79 81 84 86 89 92 95 98 101 102 104 107 110 114 116 119 120 122 125 127 130 134 137 140 143 146 149 150 150 150 151 152 153 153 154 154 153 152 149 147 143 140 136 132
28 27 26 23 21 19 18 16 14 13 11 9 8 8 9 11 13 14 16 19 22 25 28 31 34 36 38 41 43 46 49 51 54 58 62 65 66 67 69 72 74 76 78 80 83 85 87 90 93 96 99 101 102 104 107 110 114 117 119 121 122 124 127 130 133 136 139 142 146 148 150 150 151 151 152 153 154 154 154 154 152 150 148 145 141 136 132
28 27 25 23 21 20 19 17 15 13 11 10 9 9 11 13 14 16 18 21 24 27 30 33 35 37 40 43 46 48 51 53 56 59 62 65 67 69 71 73 75 77 80 82 84 86 89 91 93 96 99 101 103 105 108 111 114 117 119 121 121 123 126 130 133 136 139 142 145 148 150 151 151 152 152 153 154 154 154 154 154 152 149 145 141 137 133
29 28 26 24 22 21 19 17 15 14 12 11 11 11 12 14 16 18 20 23 25 28 31 34 36 39 42 44 47 50 53 55 57 60 63 66 68 70 72 74 76 78 81 83 85 87 90 92 95 97 100 102 104 106 109 112 115 118 120 121 122 123 126 130 133 136 139 142 145 148 150 152 152 153 153 154 154 155 155 156 155 153 150 147 143 138 134
29 28 26 24 22 21 19 17 16 15 13 12 12 13 14 16 17 19 21 24 27 30 32 35 38 41 44 46 49 52 54 56 58 61 64 66 69 72 74 76 78 79 81 84 87 89 91 93 96 98 100 102 104 107 109 112 115 118 120 121 122 124 127 130 133 136 139 142 145 148 151 152 153 154 154 154 155 156 156 156 156 154 151 148 144 139 135
29 28 26 24 23 22 20 18 17 16 14 14 14 14 16 17 19 21 23 25 28 31 34 36 39 42 45 47 50 52 55 57 59 62 65 68 70 73 75 77 79 81 83 85 88 90 92 94 96 98 100 103 106 108 110 112 115 118 120 121 123 125 128 130 132 135 139 142 144 147 150 153 154 155 155 155 155 156 156 156 155 153 151 148 145 140 136
30 28 26 25 24 22 20 19 18 17 16 16 16 16 17 19 20 22 24 27 30 32 35 38 41 43 46 48 50 53 55 58 60 63 66 69 71 74 77 79 80 81 83 86 88 91 93 94 96 99 101 104 106 108 110 112 115 118 120 121 124 126 128 130 132 135 139 141 144 147 150 152 154 155 156 156 156 156 155 155 154 153 151 149 145 141 137
Wind_Direction
71 64 55 50 46 43 39 33 26 19 15 17 24 34 45 52 53 52 50 51 54 56 55 54 51 48 45 43 42 41 40 39 38 36 34 32 29 28 26 23 22 20 18 17 15 14 12 12 11 10 9 9 8 8 7 7 6 6 6 5 4 4 3 2 3 3 2 1 0 359 357 356 356 356 354 352 351 351 349 347 349 350 347 343 342 345 346
65 58 52 48 46 42 36 29 23 20 23 31 42 51 57 58 56 54 53 54 56 57 56 54 50 46 44 44 43 42 41 40 38 36 34 32 30 28 26 23 21 19 17 16 15 14 12 11 10 10 9 8 8 7 7 6 6 5 6 5 4 4 3 1 1 2 2 1 0 359 358 357 356 357 356 355 353 351 349 348 349 351 349 344 342 345 347
61 56 53 49 44 38 31 26 23 25 35 47 55 60 61 60 58 57 55 57 58 57 55 52 49 47 45 45 44 43 42 40 38 36 34 32 30 28 25 23 21 19 17 15 14 13 12 11 10 9 9 8 7 7 6 6 6 5 5 5 5 4 3 1 0 1 1 1 1 360 359 358 357 357 357 356 353 352 350 348 349 350 349 346 343 344 346
61 56 53 48 41 34 28 25 25 33 48 59 62 63 63 62 61 59 57 58 58 57 54 51 49 48 47 47 45 43 42 40 38 36 34 32 30 27 25 22 20 18 16 15 14 13 12 11 10 9 9 8 7 6 5 5 5 5 5 5 5 4 4 3 1 1 1 1 1 0 359 358 358 357 357 356 354 353 351 348 349 350 349 348 345 343 345
58 55 53 46 37 31 27 25 29 43 58 64 64 65 65 64 62 59 58 58 58 57 54 52 50 49 49 47 45 44 42 39 36 34 33 31 28 26 23 20 18 16 15 14 13 12 11 11 10 9 8 7 6 5 5 4 5 5 4 5 4 4 4 4 2 1 1 1 1 1 360 359 358 357 356 356 355 354 351 348 349 350 349 348 346 344 344
55 54 51 43 34 29 26 26 36 55 65 66 67 68 68 66 64 61 59 58 58 57 55 53 51 50 49 47 45 43 40 37 34 32 30 28 26 24 21 18 16 14 14 13 12 11 11 10 9 8 8 7 6 5 5 4 4 5 4 4 4 4 4 4 3 1 1 1 1 1 0 358 358 357 356 356 355 354 351 349 350 351 349 347 347 346 346
53 52 48 40 33 27 25 30 48 63 69 68 70 70 69 66 64 62 59 59 58 56 54 53 52 50 49 47 44 41 38 34 32 30 28 26 24 22 19 17 15 14 13 12 12 11 11 10 9 8 7 7 6 6 5 5 4 5 4 4 4 4 4 4 4 2 2 2 1 1 0 358 358 357 356 356 355 354 352 350 350 351 350 348 347 347 348
49 47 43 39 32 26 26 39 60 69 71 72 73 72 68 65 64 63 63 61 58 56 54 53 52 50 48 46 42 39 36 33 31 29 27 25 23 20 18 17 16 14 13 12 12 11 11 10 9 8 8 7 7 6 6 5 5 5 4 4 3 4 3 4 4 3 2 2 2 1 0 359 358 357 356 356 355 355 353 350 350 351 351 349 348 348 348
46 42 39 36 31 27 32 49 67 71 71 75 76 73 69 66 64 65 66 62 58 57 56 54 52 49 46 43 40 37 35 32 30 29 27 25 22 20 18 17 17 16 14 13 12 11 11 11 10 9 9 8 8 7 6 6 6 5 5 4 4 4 4 4 4 4 3 3 2 2 1 360 359 357 356 356 356 356 354 351 350 351 351 351 350 349 349
45 38 34 32 30 29 39 59 71 73 75 77 76 74 71 68 66 66 66 62 59 59 57 54 51 47 44 41 37 35 33 31 29 28 27 25 22 20 19 18 17 17 15 14 13 12 11 12 11 11 10 10 9 8 7 7 7 6 6 5 5 5 4 4 5 5 4 3 3 2 1 0 359 358 357 356 356 356 355 352 351 352 352 351 350 349 350
44 34 29 29 28 31 47 68 75 78 79 77 75 73 71 70 69 68 66 63 61 60 57 53 49 45 41 37 34 32 31 29 28 27 26 24 22 21 19 18 17 16 15 14 13 13 13 13 13 12 12 11 10 9 9 8 8 7 7 6 6 6 5 5 5 5 4 3 3 3 1 1 360 358 358 357 356 356 356 353 352 353 353 352 350 350 350
41 30 26 27 27 34 56 74 79 83 83 78 76 73 72 72 70 67 67 67 64 61 57 52 46 40 36 32 30 29 29 29 28 26 25 22 21 20 19 17 16 15 15 15 15 15 15 14 14 14 13 12 11 11 10 10 9 9 8 7 7 6 6 6 5 5 4 3 3 3 2 1 0 359 358 357 356 356 357 355 353 353 353 352 351 350 350
35 27 24 24 26 39 66 81 84 87 86 80 77 74 72 72 69 65 67 68 66 61 55 47 41 36 32 29 28 27 27 28 26 24 23 21 20 20 18 16 16 15 15 16 16 16 16 16 15 15 14 14 13 12 11 10 10 10 9 8 8 7 7 6 6 5 5 4 3 3 3 1 1 359 358 357 356 356 356 356 354 354 354 353 351 350 351
29 23 22 21 26 46 77 87 89 91 86 80 77 75 73 71 67 64 66 68 66 59 50 42 36 34 31 29 28 27 26 26 24 22 21 20 20 19 18 16 15 16 16 17 17 16 16 16 15 15 15 15 14 13 13 12 11 11 10 9 8 7 7 6 6 5 5 4 4 3 3 2 1 360 359 358 357 357 356 356 355 354 354 353 352 351 352
21 19 18 19 28 58 89 95 95 92 84 79 77 75 72 68 66 65 67 68 64 55 45 39 34 32 30 28 27 27 26 24 22 20 19 19 20 19 17 16 16 17 17 18 17 16 16 16 15 15 15 14 14 13 13 13 12 11 11 10 8 8 7 6 6 6 5 4 4 3 3 2 2 1 360 359 358 357 357 356 356 355 354 353 353 352 352
14 13 14 18 34 74 100 102 101 92 84 79 77 74 71 68 67 68 68 67 60 50 42 37 33 30 28 26 26 26 25 22 20 19 18 19 21 19 17 17 18 18 18 17 17 16 16 16 15 15 14 14 14 13 13 13 12 11 11 10 9 8 8 7 6 6 5 5 4 3 3 3 2 1 0 360 358 358 357 356 356 355 354 354 353 352 351
7 8 9 16 41 91 109 108 104 93 84 80 76 73 70 69 69 69 67 64 56 46 39 35 31 29 27 26 26 24 22 20 19 18 18 20 21 20 18 18 18 18 18 17 17 16 16 16 15 15 14 14 14 13 12 12 12 11 10 10 10 8 8 7 7 6 6 5 5 4 3 3 3 2 1 360 359 358 357 356 355 355 355 354 353 352 351
2 4 6 15 53 106 116 112 106 94 85 80 76 73 70 70 71 69 66 61 52 43 37 33 30 28 27 26 25 23 21 19 18 18 20 21 21 20 19 18 18 17 17 16 16 15 15 15 15 15 14 13 13 13 12 12 12 11 10 10 9 9 8 7 7 6 6 5 5 5 4 3 2 2 1 360 359 358 357 356 355 355 355 355 353 352 352
359 2 3 16 69 117 122 117 107 94 86 81 77 73 71 72 72 69 64 56 47 40 35 31 30 28 26 25 23 21 19 18 18 19 21 22 21 19 18 18 17 16 16 15 15 15 14 14 14 14 14 13 13 13 13 12 12 11 10 10 9 9 8 7 7 6 6 6 5 4 4 3 2 2 1 360 359 358 358 357 356 355 355 355 354 353 352
356 359 2 18 89 127 126 119 108 94 86 81 76 74 73 74 73 68 60 51 44 38 33 30 29 27 25 23 21 19 18 19 20 22 22 21 19 18 18 16 15 15 15 14 14 14 13 13 13 13 13 13 12 12 12 12 12 11 11 10 9 9 8 8 7 7 6 6 5 4 4 4 3 2 2 1 359 358 358 357 357 356 355 355 354 353 353
352 356 1 23 111 134 130 121 107 93 86 80 75 74 77 78 74 65 55 47 41 35 31 30 29 25 23 21 20 19 21 22 23 23 21 19 17 17 16 14 14 14 14 14 14 14 13 12 12 12 12 12 12 12 12 12 12 12 11 10 9 9 8 8 8 7 7 7 6 5 5 4 4 3 2 1 360 359 358 357 357 356 355 354 354 354 354
347 352 0 39 132 142 134 122 105 92 87 81 76 77 81 79 71 60 51 44 38 33 31 29 27 23 22 22 21 23 24 24 23 21 18 17 16 15 14 13 13 13 13 14 14 13 12 12 11 11 11 11 11 11 11 12 12 12 11 11 10 9 9 8 8 8 7 7 6 5 4 4 4 3 3 2 0 359 358 358 357 356 355 354 354 355 354
340 347 359 85 146 148 138 121 103 93 87 81 79 84 84 77 67 57 49 41 36 33 31 28 25 23 23 23 24 25 25 23 22 19 17 16 16 15 14 13 13 13 13 14 13 12 12 11 10 10 10 10 10 10 11 11 12 12 12 11 10 9 9 8 7 7 7 7 6 6 4 4 4 4 3 2 1 360 359 358 357 356 356 355 354 354 355
332 343 355 140 155 153 139 119 104 95 89 84 86 90 84 74 63 54 46 40 36 33 30 25 23 23 24 25 25 25 24 22 20 19 17 17 16 14 13 13 13 13 14 13 13 12 11 10 10 9 9 9 9 9 10 11 11 11 11 11 10 9 9 8 7 7 7 7 7 6 5 4 4 4 3 2 1 0 359 358 357 357 356 356 355 354 355
326 338 343 161 161 156 139 118 104 96 91 90 93 91 81 71 61 52 45 40 36 33 27 23 22 23 25 25 24 23 22 21 20 18 18 17 16 14 14 13 14 14 14 13 12 11 10 10 9 9 9 9 9 9 10 10 11 11 11 10 10 9 9 8 8 7 6 6 6 7 6 5 4 4 3 2 2 0 359 358 357 357 357 356 355 355 355
320 328 234 170 166 159 139 118 105 99 96 97 97 90 78 68 59 50 44 40 35 30 24 21 21 23 23 23 22 21 20 20 19 19 18 16 15 14 13 13 14 14 13 11 11 10 9 9 8 8 9 9 9 9 9 10 10 11 10 10 9 9 8 8 7 7 6 5 5 6 6 5 4 4 3 2 2 1 360 358 358 357 356 356 356 356 355
312 308 195 175 171 160 138 118 106 101 103 104 98 87 75 67 58 49 45 39 32 26 22 20 20 21 21 21 20 19 19 19 19 18 17 15 14 13 12 12 13 12 11 11 10 9 8 8 7 8 9 9 9 9 9 10 10 10 10 10 9 9 8 8 8 7 6 6 5 5 5 5 5 4 3 3 2 1 360 359 358 357 356 356 356 356 356
303 278 191 178 174 160 136 118 107 105 110 107 98 85 74 65 56 49 43 35 27 22 19 18 18 19 19 18 18 18 18 19 18 17 15 14 13 12 12 12 11 11 11 10 9 8 7 7 7 7 8 8 9 9 9 9 10 10 10 10 9 9 8 8 8 7 7 6 6 5 5 5 5 4 3 3 2 1 360 359 358 358 357 357 356 356 356
293 246 191 180 175 158 134 117 109 112 115 108 96 84 72 63 56 49 39 30 23 19 17 17 17 17 17 17 18 18 18 17 16 15 14 13 12 11 11 11 10 10 10 9 8 7 6 6 6 6 7 7 8 8 9 9 10 10 10 10 9 8 8 8 8 8 7 7 6 5 5 6 5 4 3 3 2 1 360 359 359 358 358 357 356 356 356
280 223 190 182 174 155 131 117 115 120 119 108 96 84 73 61 54 46 34 24 19 16 16 16 16 17 17 17 18 18 16 15 14 13 13 12 11 11 11 10 10 9 8 7 7 6 5 5 5 5 6 6 7 8 8 9 9 10 10 9 9 8 7 7 7 7 7 7 7 6 5 5 5 5 4 3 2 1 0 360 359 358 358 357 356 356 356
264 210 189 182 173 152 130 120 124 128 121 109 96 84 73 61 51 39 27 20 16 15 15 17 17 17 17 17 17 16 14 13 12 12 11 11 11 11 10 10 8 8 7 7 6 5 4 4 4 4 5 6 6 7 8 8 9 9 9 9 8 7 7 6 6 7 7 7 7 6 6 5 5 4 4 3 2 1 0 0 360 359 358 357 357 357 357
244 202 187 182 172 150 130 126 134 135 124 110 97 83 71 58 45 31 22 17 14 14 16 18 19 18 17 16 14 12 11 11 10 9 9 9 10 10 10 9 7 7 6 6 5 4 4 3 3 3 4 5 6 6 7 7 8 8 8 8 8 7 6 6 6 6 6 6 6 6 6 5 5 4 4 3 2 1 1 0 360 359 358 358 357 357 357
227 196 186 181 169 148 132 134 142 138 125 112 98 84 72 57 39 25 18 15 14 16 18 20 20 18 16 14 13 10 9 10 9 9 9 9 9 9 8 7 6 5 5 4 4 4 3 3 3 3 4 4 5 6 6 6 6 7 7 7 7 7 7 6 5 6 6 6 5 5 5 5 5 4 3 3 2 1 1 360 359 359 359 358 358 358 358
215 193 185 180 166 147 137 143 148 141 129 114 100 86 73 55 34 21 16 15 16 18 19 20 19 17 14 14 12 10 9 10 9 9 9 8 8 8 7 6 5 4 3 3 3 3 3 2 3 3 4 4 4 5 5 5 5 6 6 6 7 7 7 6 5 5 5 5 5 5 5 5 5 4 3 2 2 1 1 360 359 359 359 359 358 358 358
206 191 185 179 164 148 144 152 153 144 132 118 101 88 72 48 28 19 16 16 18 20 20 19 17 14 13 12 11 10 10 9 9 9 8 7 6 6 6 5 4 3 2 2 2 2 2 2 3 3 3 3 3 3 3 4 4 5 5 6 6 6 6 6 6 5 5 5 5 5 5 5 4 4 3 2 2 1 0 360 359 359 359 359 359 358 358
200 190 185 177 162 149 151 159 157 146 135 122 105 91 65 37 24 19 17 17 19 20 19 17 15 13 12 11 10 9 10 8 7 7 6 5 4 4 4 3 2 1 1 2 2 2 2 2 2 3 2 2 2 2 2 3 3 4 5 5 5 6 6 6 6 5 5 5 5 5 5 5 4 4 3 2 2 1 0 360 360 360 360 359 359 359 358
196 190 184 175 161 153 157 163 159 150 143 131 113 91 52 31 22 19 18 17 17 17 17 15 13 11 11 10 9 8 8 7 5 4 4 4 3 2 1 1 1 0 1 1 1 1 1 1 1 2 1 1 1 1 1 2 2 3 4 5 5 5 5 5 5 5 5 4 4 4 4 4 4 4 4 3 2 1 0 360 0 0 360 360 359 359 359
193 189 184 173 162 158 162 165 163 159 155 143 122 76 32 24 20 17 17 16 15 13 13 13 11 10 10 9 7 5 5 4 2 1 1 1 1 0 360 360 360 360 0 1 1 1 0 0 0 1 1 0 360 360 0 1 2 2 3 4 5 5 5 5 5 5 4 4 4 4 4 4 4 4 4 3 2 1 0 0 0 0 0 360 360 359 359
190 187 182 172 164 164 167 168 167 165 161 153 136 58 13 12 15 15 14 13 12 10 10 11 10 8 7 6 4 1 1 0 360 359 358 359 359 359 358 358 359 359 0 1 1 0 360 360 360 0 0 359 359 359 360 0 1 2 3 3 4 5 5 5 5 5 4 4 4 3 3 3 3 4 3 3 2 1 1 1 0 0 0 0 360 359 359
188 185 179 171 166 168 170 171 171 170 166 160 157 349 348 358 9 13 12 11 11 9 7 7 7 5 4 3 1 359 358 358 358 357 357 357 358 358 357 357 358 359 0 0 0 360 359 359 359 359 359 359 358 359 359 360 0 1 2 3 4 4 5 5 5 5 5 4 4 3 3 3 3 3 3 3 2 2 1 1 1 0 360 360 360 360 359
187 183 177 170 167 170 173 175 176 176 174 178 205 272 320 347 3 9 10 11 9 6 3 2 2 2 1 0 359 357 357 356 356 356 356 356 356 356 356 356 357 359 359 359 359 359 358 358 358 358 358 358 358 358 359 360 0 1 2 2 3 4 4 5 5 5 5 4 4 4 3 3 3 3 3 3 2 2 2 1 1 0 360 360 360 360 359
185 181 175 169 168 171 175 177 179 181 185 196 225 265 303 336 355 4 8 8 5 1 359 358 357 358 357 357 356 356 355 355 354 354 354 354 355 355 355 355 357 358 358 358 357 357 357 357 357 357 357 357 358 358 358 359 360 0 1 2 3 4 4 5 5 5 4 4 4 3 3 3 3 3 3 3 3 2 2 1 1 0 360 360 360 360 360
184 179 173 169 170 175 178 179 182 188 197 212 235 266 299 328 346 356 1 2 0 358 355 353 353 353 353 353 353 353 353 353 353 352 352 353 354 354 354 354 355 356 356 356 356 355 355 356 356 356 356 357 357 358 358 359 359 360 1 1 2 3 4 4 5 5 4 4 4 3 3 3 3 3 3 3 2 2 2 1 1 0 360 360 359 359 360
184 179 173 171 174 178 180 182 187 195 208 224 242 268 298 321 337 346 352 355 357 355 351 349 349 349 349 349 350 350 350 350 351 351 351 352 352 352 352 352 353 354 354 354 354 354 354 355 355 355 355 356 356 357 357 358 358 359 360 1 2 3 3 4 4 4 4 4 3 3 3 3 3 3 3 3 2 2 2 1 1 0 360 359 359 359 360
185 178 173 173 178 181 182 186 192 201 214 231 247 269 295 314 326 335 343 348 350 349 346 344 345 346 346 346 347 347 348 348 349 349 350 350 350 350 350 351 351 352 353 353 352 353 353 354 354 354 355 355 355 355 356 357 357 358 359 360 1 2 2 3 4 4 4 4 3 3 3 3 3 3 2 2 2 2 1 1 0 360 359 359 359 359 360
184 177 175 178 182 184 186 191 197 206 219 233 250 270 290 305 315 325 333 340 343 342 341 341 341 343 343 343 344 345 346 347 347 348 348 349 349 349 349 350 350 351 352 352 352 352 352 353 353 353 354 354 354 354 355 356 356 357 358 359 0 1 2 2 3 3 4 3 3 3 3 3 3 2 2 2 2 2 1 1 0 360 359 359 359 359 360
183 178 179 183 186 188 191 197 203 211 222 233 248 269 287 299 309 318 327 333 336 337 337 338 340 341 341 341 342 344 345 346 347 347 347 347 348 348 349 349 350 350 351 351 351 351 351 352 352 352 353 353 353 353 354 355 356 357 357 358 359 360 1 1 2 3 3 3 3 3 3 3 3 3 2 2 2 2 1 1 0 360 359 359 359 359 360
182 181 184 189 191 193 197 202 208 215 224 234 247 267 284 295 304 314 323 329 332 333 334 336 338 339 339 339 341 343 344 346 346 347 346 346 346 347 348 349 350 350 351 351 351 351 351 351 351 351 352 352 352 353 354 355 355 356 357 358 358 359 360 1 1 2 3 3 3 3 3 3 3 3 3 2 2 2 1 1 0 360 359 359 359 359 359
183 185 189 193 196 198 203 209 215 220 227 236 249 266 281 292 301 312 320 325 328 330 332 334 336 337 337 338 340 342 343 345 346 346 346 345 345 346 347 349 349 350 350 350 350 350 350 351 351 351 351 351 352 352 353 354 355 356 357 357 358 359 359 0 1 2 2 3 3 3 3 3 3 3 3 3 2 2 1 1 1 360 359 359 359 359 359
186 190 195 198 200 204 209 215 221 227 233 241 252 266 279 290 300 310 318 322 326 328 330 332 334 335 336 337 339 341 342 344 345 345 345 345 345 346 347 348 349 349 350 350 350 350 350 350 351 351 351 351 351 352 353 354 355 356 356 357 358 358 359 360 1 1 2 2 2 2 2 2 3 3 3 3 3 2 2 1 1 0 359 359 359 359 359
191 195 200 203 205 209 215 221 228 234 240 248 257 268 279 290 300 309 315 320 323 326 328 330 332 333 334 336 338 340 342 342 344 344 344 344 345 345 346 347 348 349 349 350 350 349 350 350 350 350 351 351 351 351 352 354 355 355 356 357 358 358 359 360 0 1 1 2 2 2 2 2 2 2 3 3 3 3 2 2 1 0 359 359 359 359 359
196 200 205 208 210 214 220 227 234 241 247 255 263 272 282 292 301 308 314 318 321 324 326 328 330 331 333 335 337 339 341 342 343 343 344 344 344 345 346 346 347 348 349 349 349 349 349 350 350 350 350 350 350 351 352 353 354 355 356 356 357 358 359 359 360 0 1 1 1 1 1 1 2 2 2 2 2 2 2 2 1 0 360 359 359 358 358